• In Russia
  • List of Countries
  • For 7 days
  • Water Temperature
  • Weather Map
  • Weather Widgets
  • user-avatar
    Login

    Hourly Weather Jalalabad

    Today, 31 March, Tuesday

    Time Temperature Precipitation Wind Pressure Humidity
    00:00 +16°C° 1.4 mm 1 mps 709 mmHg 74%
    01:00 +15°C° 1.4 mm 1 mps 709 mmHg 81%
    02:00 +14°C° 1.4 mm 1 mps 709 mmHg 88%
    03:00 +14°C° 1.1 mm 1 mps 709 mmHg 87%
    04:00 +14°C° 1.1 mm 1 mps 709 mmHg 87%
    05:00 +13°C° 0 mm 0 mps 708 mmHg 89%
    06:00 +13°C° 0.4 mm 0 mps 709 mmHg 88%
    07:00 +13°C° 0.4 mm 0 mps 709 mmHg 87%
    08:00 +13°C° 0.4 mm 0 mps 709 mmHg 86%
    09:00 +14°C° 0.1 mm 0 mps 709 mmHg 84%
    10:00 +15°C° 0.1 mm 1 mps 709 mmHg 82%
    11:00 +15°C° 0 mm 1 mps 708 mmHg 79%
    12:00 +15°C° 1.6 mm 1 mps 708 mmHg 83%
    13:00 +14°C° 1.6 mm 1 mps 707 mmHg 86%
    14:00 +14°C° 1.6 mm 1 mps 707 mmHg 90%
    15:00 +14°C° 1 mm 1 mps 707 mmHg 89%
    16:00 +14°C° 1 mm 1 mps 707 mmHg 88%
    17:00 +14°C° 1 mm 1 mps 707 mmHg 86%
    18:00 +14°C° 0 mm 1 mps 707 mmHg 87%
    19:00 +14°C° 0 mm 1 mps 708 mmHg 87%
    20:00 +13°C° 0 mm 0 mps 708 mmHg 88%
    21:00 +13°C° 0 mm 0 mps 708 mmHg 89%
    22:00 +12°C° 0 mm 0 mps 708 mmHg 90%
    23:00 +12°C° 0 mm 0 mps 709 mmHg 91%

    Tomorrow, 1 April, Wednesday

    Time Temperature Precipitation Wind Pressure Humidity
    00:00 +12°C° 0 mm 0 mps 709 mmHg 91%
    01:00 +11°C° 0 mm 0 mps 708 mmHg 91%
    02:00 +11°C° 0 mm 0 mps 708 mmHg 91%
    03:00 +11°C° 0 mm 0 mps 709 mmHg 91%
    04:00 +11°C° 0 mm 0 mps 709 mmHg 91%
    05:00 +10°C° 0 mm 0 mps 709 mmHg 92%
    06:00 +11°C° 0 mm 0 mps 709 mmHg 87%
    07:00 +12°C° 0 mm 0 mps 710 mmHg 83%
    08:00 +13°C° 0 mm 0 mps 710 mmHg 79%
    09:00 +16°C° 0 mm 1 mps 710 mmHg 73%
    10:00 +18°C° 0 mm 1 mps 710 mmHg 67%
    11:00 +19°C° 0 mm 1 mps 711 mmHg 61%
    12:00 +20°C° 0.1 mm 1 mps 710 mmHg 56%
    13:00 +21°C° 0.1 mm 1 mps 710 mmHg 52%
    14:00 +22°C° 0.1 mm 1 mps 709 mmHg 47%
    15:00 +22°C° 0.2 mm 1 mps 709 mmHg 45%
    16:00 +23°C° 0.2 mm 1 mps 709 mmHg 43%
    17:00 +23°C° 0.2 mm 1 mps 708 mmHg 41%
    18:00 +22°C° 0.1 mm 1 mps 709 mmHg 46%
    19:00 +21°C° 0.1 mm 1 mps 709 mmHg 51%
    20:00 +20°C° 0.1 mm 1 mps 710 mmHg 57%
    21:00 +20°C° 0.3 mm 1 mps 710 mmHg 58%
    22:00 +19°C° 0.3 mm 1 mps 710 mmHg 58%
    23:00 +18°C° 0.3 mm 1 mps 710 mmHg 59%

    Day after tomorrow, 2 April, Thursday

    Time Temperature Precipitation Wind Pressure Humidity
    00:00 +18°C° 0 mm 1 mps 710 mmHg 59%
    01:00 +18°C° 0 mm 1 mps 710 mmHg 58%
    02:00 +16°C° 0 mm 1 mps 710 mmHg 58%
    03:00 +16°C° 0 mm 1 mps 710 mmHg 56%
    04:00 +15°C° 0 mm 1 mps 710 mmHg 55%
    05:00 +15°C° 0 mm 1 mps 710 mmHg 54%
    06:00 +16°C° 0 mm 1 mps 710 mmHg 48%
    07:00 +18°C° 0 mm 1 mps 710 mmHg 43%
    08:00 +19°C° 0 mm 1 mps 710 mmHg 37%
    09:00 +20°C° 0 mm 1 mps 710 mmHg 33%
    10:00 +21°C° 0 mm 1 mps 710 mmHg 29%
    11:00 +21°C° 0 mm 2 mps 710 mmHg 24%
    12:00 +23°C° 0 mm 1 mps 710 mmHg 22%
    13:00 +24°C° 0 mm 1 mps 710 mmHg 20%
    14:00 +25°C° 0 mm 1 mps 710 mmHg 18%
    15:00 +25°C° 0 mm 1 mps 709 mmHg 18%
    16:00 +26°C° 0 mm 2 mps 709 mmHg 18%
    17:00 +26°C° 0 mm 2 mps 709 mmHg 18%
    18:00 +24°C° 0 mm 1 mps 709 mmHg 25%
    19:00 +23°C° 0 mm 1 mps 710 mmHg 31%
    20:00 +21°C° 0 mm 1 mps 710 mmHg 38%
    21:00 +21°C° 0 mm 1 mps 711 mmHg 39%
    22:00 +18°C° 0 mm 0 mps 711 mmHg 39%
    23:00 +18°C° 0 mm 0 mps 711 mmHg 40%

    3 April, Friday

    Time Temperature Precipitation Wind Pressure Humidity
    00:00 +17°C° 0 mm 0 mps 710 mmHg 41%
    01:00 +17°C° 0 mm 0 mps 710 mmHg 41%
    02:00 +16°C° 0 mm 0 mps 710 mmHg 42%
    03:00 +16°C° 0 mm 0 mps 710 mmHg 41%
    04:00 +15°C° 0 mm 0 mps 710 mmHg 40%
    05:00 +16°C° 0 mm 1 mps 709 mmHg 40%
    06:00 +18°C° 0 mm 1 mps 710 mmHg 35%
    07:00 +20°C° 0 mm 1 mps 710 mmHg 31%
    08:00 +21°C° 0 mm 1 mps 710 mmHg 26%
    09:00 +22°C° 0 mm 1 mps 710 mmHg 24%
    10:00 +23°C° 0 mm 1 mps 710 mmHg 22%
    11:00 +24°C° 0 mm 1 mps 710 mmHg 19%
    12:00 +25°C° 0 mm 1 mps 710 mmHg 18%
    13:00 +26°C° 0 mm 1 mps 710 mmHg 17%
    14:00 +27°C° 0 mm 1 mps 710 mmHg 16%
    15:00 +27°C° 0 mm 1 mps 710 mmHg 16%
    16:00 +27°C° 0 mm 1 mps 709 mmHg 17%
    17:00 +27°C° 0 mm 1 mps 709 mmHg 17%
    18:00 +26°C° 0 mm 1 mps 710 mmHg 24%
    19:00 +24°C° 0 mm 1 mps 710 mmHg 30%
    20:00 +21°C° 0 mm 0 mps 710 mmHg 37%
    21:00 +20°C° 0 mm 0 mps 711 mmHg 38%
    22:00 +20°C° 0 mm 0 mps 711 mmHg 38%
    23:00 +19°C° 0 mm 0 mps 711 mmHg 38%

    4 April, Saturday

    Time Temperature Precipitation Wind Pressure Humidity
    00:00 +19°C° 0 mm 0 mps 710 mmHg 38%
    01:00 +19°C° 0 mm 0 mps 710 mmHg 38%
    02:00 +18°C° 0 mm 0 mps 710 mmHg 38%
    03:00 +18°C° 0 mm 0 mps 710 mmHg 38%
    04:00 +17°C° 0 mm 0 mps 710 mmHg 38%
    05:00 +17°C° 0 mm 0 mps 709 mmHg 39%
    06:00 +19°C° 0 mm 0 mps 710 mmHg 35%
    07:00 +20°C° 0 mm 0 mps 710 mmHg 32%
    08:00 +21°C° 0 mm 0 mps 711 mmHg 29%
    09:00 +24°C° 0 mm 1 mps 711 mmHg 26%
    10:00 +25°C° 0 mm 1 mps 711 mmHg 23%
    11:00 +26°C° 0 mm 1 mps 711 mmHg 20%
    12:00 +27°C° 0 mm 1 mps 710 mmHg 19%
    13:00 +28°C° 0 mm 1 mps 710 mmHg 18%
    14:00 +29°C° 0 mm 2 mps 710 mmHg 17%
    15:00 +29°C° 0 mm 2 mps 710 mmHg 17%
    16:00 +29°C° 0 mm 2 mps 709 mmHg 18%
    17:00 +29°C° 0 mm 2 mps 709 mmHg 18%
    18:00 +27°C° 0 mm 2 mps 709 mmHg 24%
    19:00 +26°C° 0 mm 1 mps 710 mmHg 30%
    20:00 +25°C° 0 mm 1 mps 710 mmHg 36%
    21:00 +24°C° 0 mm 1 mps 710 mmHg 37%
    22:00 +24°C° 0 mm 1 mps 710 mmHg 39%
    23:00 +24°C° 0 mm 1 mps 711 mmHg 40%

    5 April, Sunday

    Time Temperature Precipitation Wind Pressure Humidity
    00:00 +23°C° 0 mm 1 mps 711 mmHg 42%
    01:00 +22°C° 0 mm 1 mps 710 mmHg 44%
    02:00 +20°C° 0 mm 0 mps 710 mmHg 45%
    03:00 +21°C° 0 mm 1 mps 710 mmHg 45%
    04:00 +21°C° 0 mm 1 mps 710 mmHg 45%
    05:00 +20°C° 0 mm 1 mps 710 mmHg 45%
    06:00 +22°C° 0 mm 1 mps 710 mmHg 41%
    07:00 +23°C° 0 mm 1 mps 711 mmHg 36%
    08:00 +25°C° 0 mm 1 mps 711 mmHg 32%
    09:00 +26°C° 0 mm 1 mps 711 mmHg 29%
    10:00 +27°C° 0 mm 1 mps 711 mmHg 27%
    11:00 +28°C° 0 mm 2 mps 711 mmHg 24%
    12:00 +28°C° 0 mm 1 mps 711 mmHg 23%
    13:00 +29°C° 0 mm 1 mps 711 mmHg 21%
    14:00 +30°C° 0 mm 1 mps 710 mmHg 20%
    15:00 +30°C° 0 mm 1 mps 710 mmHg 20%
    16:00 +30°C° 0 mm 1 mps 710 mmHg 20%
    17:00 +30°C° 0 mm 1 mps 710 mmHg 20%
    18:00 +28°C° 0.1 mm 1 mps 710 mmHg 27%
    19:00 +27°C° 0.1 mm 1 mps 710 mmHg 34%
    20:00 +26°C° 0.1 mm 1 mps 710 mmHg 40%
    21:00 +25°C° 0 mm 1 mps 710 mmHg 41%
    22:00 +24°C° 0 mm 1 mps 711 mmHg 42%
    23:00 +24°C° 0 mm 1 mps 711 mmHg 42%
    Show more